| time (UTC) | temp F | wind direction | speed MPH | gust MPH | rain 1hr in | rain 24hr in | rain mn in | humidity % | barometer mb |
| 20260503183903 | 67 | 154 | 0.0 | 0.0 | 0.00 | 0.00 | 0.00 | 62 | 1016.4 |
| 20260503182902 | 68 | 167 | 0.0 | 0.0 | 0.00 | 0.00 | 0.00 | 61 | 1016.3 |
| 20260503181904 | 68 | 159 | 1.0 | 6.0 | 0.00 | 0.00 | 0.00 | 59 | 1016.3 |
| 20260503181402 | 69 | 132 | 1.0 | 6.0 | 0.00 | 0.00 | 0.00 | 58 | 1016.3 |
| 20260503180903 | 69 | 150 | 1.0 | 6.0 | 0.00 | 0.00 | 0.00 | 57 | 1016.3 |
| 20260503180402 | 69 | 153 | 1.0 | 7.0 | 0.00 | 0.00 | 0.00 | 56 | 1016.3 |
| 20260503175903 | 70 | 148 | 2.0 | 7.0 | 0.00 | 0.00 | 0.00 | 55 | 1016.3 |
| 20260503175403 | 70 | 178 | 2.0 | 9.0 | 0.00 | 0.00 | 0.00 | 54 | 1016.2 |
| 20260503174904 | 70 | 168 | 2.0 | 9.0 | 0.00 | 0.00 | 0.00 | 53 | 1016.2 |
| 20260503174402 | 71 | 134 | 3.0 | 9.0 | 0.00 | 0.00 | 0.00 | 52 | 1016.2 |
| 20260503173856 | 71 | 131 | 2.0 | 8.0 | 0.00 | 0.00 | 0.00 | 52 | 1016.0 |
| 20260503173349 | 72 | 169 | 1.0 | 7.0 | 0.00 | 0.00 | 0.00 | 52 | 1016.0 |
| 20260503172843 | 72 | 117 | 1.0 | 7.0 | 0.00 | 0.00 | 0.00 | 51 | 1016.1 |
| 20260503172337 | 73 | 162 | 2.0 | 7.0 | 0.00 | 0.00 | 0.00 | 50 | 1016.0 |
| 20260503171833 | 73 | 146 | 2.0 | 7.0 | 0.00 | 0.00 | 0.00 | 50 | 1016.0 |
| 20260503171335 | 73 | 147 | 3.0 | 10.0 | 0.00 | 0.00 | 0.00 | 48 | 1016.0 |
| 20260503170333 | 73 | 118 | 4.0 | 11.0 | 0.00 | 0.00 | 0.00 | 47 | 1016.0 |
| 20260503150832 | 75 | 127 | 5.0 | 12.0 | 0.00 | 0.00 | 0.00 | 45 | 1016.8 |
| 20260503150330 | 75 | 159 | 5.0 | 12.0 | 0.00 | 0.00 | 0.00 | 43 | 1016.8 |
| 20260503131320 | 78 | 119 | 4.0 | 11.0 | 0.00 | 0.00 | 0.00 | 38 | 1017.6 |
| 20260503110730 | 76 | 229 | 2.0 | 9.0 | 0.00 | 0.00 | 0.00 | 31 | 1018.6 |
| 20260503110230 | 76 | 274 | 4.0 | 9.0 | 0.00 | 0.00 | 0.00 | 32 | 1018.6 |
| 20260503100230 | 76 | 202 | 2.0 | 7.0 | 0.00 | 0.00 | 0.00 | 35 | 1019.1 |
| 20260503090231 | 71 | 238 | 1.0 | 6.0 | 0.00 | 0.00 | 0.00 | 41 | 1019.4 |
| 20260503081231 | 67 | 5 | 1.0 | 3.0 | 0.00 | 0.00 | 0.00 | 50 | 1019.6 |
| 20260503080731 | 67 | 5 | 0.0 | 3.0 | 0.00 | 0.00 | 0.00 | 51 | 1019.6 |
| 20260503080229 | 66 | 351 | 0.0 | 3.0 | 0.00 | 0.00 | 0.00 | 55 | 1019.6 |
| 20260503072232 | 62 | 300 | 0.0 | 0.0 | 0.00 | 0.00 | 0.00 | 63 | 1019.8 |
| 20260503071730 | 62 | 300 | 0.0 | 0.0 | 0.00 | 0.00 | 0.00 | 63 | 1019.8 |
| 20260503071230 | 62 | 292 | 0.0 | 0.0 | 0.00 | 0.00 | 0.00 | 63 | 1019.9 |
| 20260503070731 | 62 | 315 | 0.0 | 0.0 | 0.00 | 0.00 | 0.00 | 63 | 1019.9 |
| 20260503070231 | 61 | 11 | 0.0 | 0.0 | 0.00 | 0.00 | 0.00 | 64 | 1019.8 |
| 20260503060226 | 57 | 313 | 0.0 | 0.0 | 0.00 | 0.00 | 0.00 | 71 | 1019.6 |
| 20260503054722 | 56 | 308 | 0.0 | 0.0 | 0.00 | 0.00 | 0.00 | 72 | 1019.7 |
| 20260503054220 | 56 | 306 | 0.0 | 0.0 | 0.00 | 0.00 | 0.00 | 73 | 1019.7 |
| 20260503053718 | 56 | 302 | 0.0 | 0.0 | 0.00 | 0.00 | 0.00 | 73 | 1019.7 |
| 20260503052719 | 55 | 226 | 0.0 | 0.0 | 0.00 | 0.00 | 0.00 | 74 | 1019.6 |
| 20260503052218 | 54 | 225 | 0.0 | 0.0 | 0.00 | 0.00 | 0.00 | 75 | 1019.6 |
| 20260503051717 | 54 | 223 | 0.0 | 0.0 | 0.00 | 0.00 | 0.00 | 75 | 1019.6 |
| 20260503051217 | 53 | 223 | 0.0 | 0.0 | 0.00 | 0.00 | 0.00 | 75 | 1019.7 |
| 20260503050216 | 52 | 220 | 0.0 | 0.0 | 0.00 | 0.00 | 0.00 | 77 | 1019.6 |
| 20260503045714 | 52 | 220 | 0.0 | 0.0 | 0.00 | 0.00 | 0.00 | 77 | 1019.6 |
| 20260503045214 | 51 | 220 | 0.0 | 0.0 | 0.00 | 0.00 | 0.00 | 78 | 1019.6 |
| 20260503044717 | 51 | 220 | 0.0 | 0.0 | 0.00 | 0.00 | 0.00 | 78 | 1019.6 |
| 20260503044214 | 51 | 220 | 0.0 | 0.0 | 0.00 | 0.00 | 0.00 | 78 | 1019.6 |
| 20260503043715 | 51 | 220 | 0.0 | 0.0 | 0.00 | 0.00 | 0.00 | 78 | 1019.6 |
| 20260503043210 | 50 | 220 | 0.0 | 0.0 | 0.00 | 0.00 | 0.00 | 78 | 1019.6 |
| 20260503042710 | 50 | 220 | 0.0 | 0.0 | 0.00 | 0.00 | 0.00 | 77 | 1019.7 |
| 20260503042211 | 50 | 220 | 0.0 | 0.0 | 0.00 | 0.00 | 0.00 | 77 | 1019.6 |
| 20260503041709 | 51 | 220 | 0.0 | 0.0 | 0.00 | 0.00 | 0.00 | 77 | 1019.6 |
| 20260503041210 | 51 | 220 | 0.0 | 0.0 | 0.00 | 0.00 | 0.00 | 77 | 1019.6 |
| 20260503040211 | 51 | 220 | 0.0 | 0.0 | 0.00 | 0.00 | 0.00 | 77 | 1019.6 |
| 20260503035709 | 51 | 220 | 0.0 | 0.0 | 0.00 | 0.00 | 0.00 | 76 | 1019.5 |
| 20260503035211 | 51 | 220 | 0.0 | 0.0 | 0.00 | 0.00 | 0.00 | 76 | 1019.5 |
| 20260503034710 | 51 | 220 | 0.0 | 0.0 | 0.00 | 0.00 | 0.00 | 76 | 1019.5 |
| 20260503034210 | 51 | 220 | 0.0 | 0.0 | 0.00 | 0.00 | 0.00 | 75 | 1019.5 |
| 20260503033707 | 51 | 220 | 0.0 | 0.0 | 0.00 | 0.00 | 0.00 | 75 | 1019.5 |
| 20260503033205 | 51 | 220 | 0.0 | 0.0 | 0.00 | 0.00 | 0.00 | 75 | 1019.5 |
| 20260503032705 | 51 | 220 | 0.0 | 0.0 | 0.00 | 0.00 | 0.00 | 75 | 1019.5 |
| 20260503032202 | 51 | 220 | 0.0 | 0.0 | 0.00 | 0.00 | 0.00 | 74 | 1019.4 |
| 20260503031704 | 51 | 220 | 0.0 | 0.0 | 0.00 | 0.00 | 0.00 | 74 | 1019.4 |
| 20260503031202 | 52 | 220 | 0.0 | 0.0 | 0.00 | 0.00 | 0.00 | 74 | 1019.5 |
| 20260503030702 | 52 | 220 | 0.0 | 0.0 | 0.00 | 0.00 | 0.00 | 74 | 1019.5 |
| 20260503030203 | 52 | 220 | 0.0 | 0.0 | 0.00 | 0.00 | 0.00 | 74 | 1019.5 |
| 20260503025703 | 52 | 220 | 0.0 | 0.0 | 0.00 | 0.00 | 0.00 | 73 | 1019.5 |
| 20260503025205 | 52 | 220 | 0.0 | 0.0 | 0.00 | 0.00 | 0.00 | 73 | 1019.6 |
| 20260503024703 | 52 | 220 | 0.0 | 0.0 | 0.00 | 0.00 | 0.00 | 73 | 1019.6 |
| 20260503024204 | 53 | 220 | 0.0 | 0.0 | 0.00 | 0.00 | 0.00 | 73 | 1019.6 |
| 20260503023704 | 53 | 220 | 0.0 | 0.0 | 0.00 | 0.00 | 0.00 | 73 | 1019.7 |
| 20260503023201 | 53 | 220 | 0.0 | 0.0 | 0.00 | 0.00 | 0.00 | 73 | 1019.7 |
| 20260503022656 | 53 | 220 | 0.0 | 0.0 | 0.00 | 0.00 | 0.00 | 73 | 1019.7 |
| 20260503022150 | 53 | 220 | 0.0 | 0.0 | 0.00 | 0.00 | 0.00 | 73 | 1019.7 |
| 20260503021650 | 52 | 220 | 0.0 | 0.0 | 0.00 | 0.00 | 0.00 | 73 | 1019.8 |
| 20260503021147 | 53 | 220 | 0.0 | 0.0 | 0.00 | 0.00 | 0.00 | 72 | 1019.8 |
| 20260503020646 | 53 | 220 | 0.0 | 0.0 | 0.00 | 0.00 | 0.00 | 72 | 1019.8 |
| 20260503020148 | 53 | 220 | 0.0 | 0.0 | 0.00 | 0.00 | 0.00 | 72 | 1019.8 |
| 20260503015646 | 53 | 220 | 0.0 | 0.0 | 0.00 | 0.00 | 0.00 | 71 | 1019.8 |
| 20260503015143 | 53 | 220 | 0.0 | 0.0 | 0.00 | 0.00 | 0.00 | 71 | 1019.8 |
| 20260503014642 | 53 | 220 | 0.0 | 0.0 | 0.00 | 0.00 | 0.00 | 70 | 1019.8 |
| 20260503014140 | 53 | 220 | 0.0 | 0.0 | 0.00 | 0.00 | 0.00 | 70 | 1019.9 |
| 20260503013638 | 53 | 220 | 0.0 | 0.0 | 0.00 | 0.00 | 0.00 | 70 | 1019.8 |
| 20260503012635 | 53 | 220 | 0.0 | 0.0 | 0.00 | 0.00 | 0.00 | 69 | 1019.9 |
| 20260503012137 | 54 | 220 | 0.0 | 0.0 | 0.00 | 0.00 | 0.00 | 69 | 1019.8 |
| 20260503011636 | 54 | 220 | 0.0 | 0.0 | 0.00 | 0.00 | 0.00 | 68 | 1019.8 |
| 20260503011135 | 54 | 220 | 0.0 | 0.0 | 0.00 | 0.00 | 0.00 | 68 | 1019.9 |
| 20260503010634 | 54 | 220 | 0.0 | 0.0 | 0.00 | 0.00 | 0.00 | 68 | 1019.9 |
| 20260503010131 | 54 | 220 | 0.0 | 0.0 | 0.00 | 0.00 | 0.00 | 68 | 1019.8 |
| 20260503005631 | 54 | 220 | 0.0 | 0.0 | 0.00 | 0.00 | 0.00 | 67 | 1019.9 |
| 20260503005131 | 55 | 220 | 0.0 | 0.0 | 0.00 | 0.00 | 0.00 | 66 | 1019.9 |
| 20260503004631 | 55 | 220 | 0.0 | 0.0 | 0.00 | 0.00 | 0.00 | 66 | 1019.9 |
| 20260503003619 | 55 | 220 | 0.0 | 0.0 | 0.00 | 0.00 | 0.00 | 66 | 1020.0 |
| 20260503002605 | 55 | 220 | 0.0 | 0.0 | 0.00 | 0.00 | 0.00 | 65 | 1020.1 |
| 20260503002102 | 55 | 220 | 0.0 | 0.0 | 0.00 | 0.00 | 0.00 | 65 | 1020.1 |
| 20260503001103 | 56 | 220 | 0.0 | 0.0 | 0.00 | 0.00 | 0.00 | 65 | 1020.1 |
| 20260503000604 | 56 | 219 | 0.0 | 0.0 | 0.00 | 0.00 | 0.00 | 65 | 1020.2 |
| 20260502235603 | 56 | 219 | 0.0 | 0.0 | 0.00 | 0.00 | 0.00 | 64 | 1020.3 |
| 20260502235103 | 56 | 219 | 0.0 | 0.0 | 0.00 | 0.00 | 0.00 | 63 | 1020.3 |
| 20260502234605 | 57 | 219 | 0.0 | 0.0 | 0.00 | 0.00 | 0.00 | 61 | 1020.3 |
| 20260502234103 | 57 | 219 | 0.0 | 0.0 | 0.00 | 0.00 | 0.00 | 61 | 1020.4 |
| 20260502233602 | 57 | 219 | 0.0 | 0.0 | 0.00 | 0.00 | 0.00 | 60 | 1020.4 |
| 20260502232602 | 57 | 219 | 0.0 | 0.0 | 0.00 | 0.00 | 0.00 | 59 | 1020.5 |
| 20260502232102 | 58 | 219 | 0.0 | 0.0 | 0.00 | 0.00 | 0.00 | 59 | 1020.5 |
| 20260502231603 | 58 | 219 | 0.0 | 0.0 | 0.00 | 0.00 | 0.00 | 59 | 1020.5 |
| 20260502230617 | 58 | 219 | 0.0 | 0.0 | 0.00 | 0.00 | 0.00 | 58 | 1020.5 |
| 20260502225103 | 58 | 219 | 0.0 | 0.0 | 0.00 | 0.00 | 0.00 | 57 | 1020.6 |
| 20260502223602 | 58 | 219 | 0.0 | 0.0 | 0.00 | 0.00 | 0.00 | 57 | 1020.7 |
| 20260502222604 | 59 | 219 | 0.0 | 2.0 | 0.00 | 0.00 | 0.00 | 56 | 1020.8 |
| 20260502222104 | 59 | 219 | 0.0 | 0.0 | 0.00 | 0.00 | 0.00 | 56 | 1020.7 |
| 20260502221603 | 59 | 219 | 0.0 | 0.0 | 0.00 | 0.00 | 0.00 | 56 | 1020.8 |
| 20260502221103 | 59 | 219 | 0.0 | 0.0 | 0.00 | 0.00 | 0.00 | 55 | 1020.8 |
| 20260502220602 | 60 | 220 | 0.0 | 0.0 | 0.00 | 0.00 | 0.00 | 55 | 1020.8 |
| 20260502220103 | 60 | 220 | 0.0 | 0.0 | 0.00 | 0.00 | 0.00 | 54 | 1020.8 |
| 20260502215602 | 60 | 220 | 0.0 | 0.0 | 0.00 | 0.00 | 0.00 | 54 | 1020.8 |
| 20260502215102 | 60 | 220 | 0.0 | 0.0 | 0.00 | 0.00 | 0.00 | 54 | 1020.8 |
| 20260502214602 | 60 | 220 | 0.0 | 0.0 | 0.00 | 0.00 | 0.00 | 54 | 1020.8 |
| 20260502214103 | 60 | 220 | 0.0 | 0.0 | 0.00 | 0.00 | 0.00 | 54 | 1020.8 |
| 20260502213602 | 61 | 220 | 0.0 | 0.0 | 0.00 | 0.00 | 0.00 | 53 | 1020.8 |
| 20260502213102 | 61 | 209 | 0.0 | 0.0 | 0.00 | 0.00 | 0.00 | 53 | 1020.8 |
| 20260502212603 | 61 | 209 | 0.0 | 0.0 | 0.00 | 0.00 | 0.00 | 53 | 1020.8 |
| 20260502212103 | 61 | 209 | 0.0 | 1.0 | 0.00 | 0.00 | 0.00 | 53 | 1020.8 |
| 20260502211602 | 61 | 209 | 0.0 | 1.0 | 0.00 | 0.00 | 0.00 | 52 | 1020.8 |
| 20260502211102 | 61 | 209 | 0.0 | 0.0 | 0.00 | 0.00 | 0.00 | 52 | 1020.8 |
| 20260502210602 | 62 | 209 | 0.0 | 0.0 | 0.00 | 0.00 | 0.00 | 51 | 1020.8 |
| 20260502210119 | 62 | 209 | 0.0 | 3.0 | 0.00 | 0.00 | 0.00 | 51 | 1020.9 |
| 20260502205603 | 62 | 208 | 0.0 | 3.0 | 0.00 | 0.00 | 0.00 | 51 | 1020.9 |
| 20260502205102 | 62 | 208 | 0.0 | 0.0 | 0.00 | 0.00 | 0.00 | 51 | 1020.9 |
| 20260502204604 | 62 | 207 | 0.0 | 0.0 | 0.00 | 0.00 | 0.00 | 51 | 1020.9 |
| 20260502204102 | 62 | 216 | 0.0 | 0.0 | 0.00 | 0.00 | 0.00 | 50 | 1020.9 |
| 20260502203602 | 63 | 216 | 0.0 | 0.0 | 0.00 | 0.00 | 0.00 | 50 | 1020.9 |
| 20260502203102 | 63 | 216 | 0.0 | 0.0 | 0.00 | 0.00 | 0.00 | 50 | 1020.9 |
| 20260502202601 | 63 | 216 | 0.0 | 0.0 | 0.00 | 0.00 | 0.00 | 49 | 1020.9 |
| 20260502202102 | 63 | 216 | 0.0 | 0.0 | 0.00 | 0.00 | 0.00 | 49 | 1020.9 |
| 20260502201600 | 64 | 216 | 0.0 | 0.0 | 0.00 | 0.00 | 0.00 | 48 | 1020.9 |
| 20260502201101 | 64 | 216 | 0.0 | 0.0 | 0.00 | 0.00 | 0.00 | 48 | 1021.0 |
| 20260502200101 | 64 | 216 | 0.0 | 0.0 | 0.00 | 0.00 | 0.00 | 48 | 1020.9 |
| 20260502195101 | 65 | 216 | 0.0 | 0.0 | 0.00 | 0.00 | 0.00 | 47 | 1021.0 |
| 20260502194600 | 65 | 216 | 0.0 | 0.0 | 0.00 | 0.00 | 0.00 | 47 | 1020.9 |
| 20260502193601 | 65 | 216 | 0.0 | 0.0 | 0.00 | 0.00 | 0.00 | 46 | 1020.9 |
| 20260502192600 | 66 | 216 | 0.0 | 0.0 | 0.00 | 0.00 | 0.00 | 45 | 1020.8 |
| 20260502192102 | 66 | 216 | 0.0 | 0.0 | 0.00 | 0.00 | 0.00 | 45 | 1020.8 |
| 20260502191601 | 66 | 216 | 0.0 | 0.0 | 0.00 | 0.00 | 0.00 | 45 | 1020.8 |
| 20260502191101 | 67 | 214 | 0.0 | 0.0 | 0.00 | 0.00 | 0.00 | 44 | 1020.8 |
| 20260502190601 | 67 | 214 | 0.0 | 0.0 | 0.00 | 0.00 | 0.00 | 44 | 1020.7 |
| 20260502190101 | 67 | 215 | 0.0 | 0.0 | 0.00 | 0.00 | 0.00 | 44 | 1020.8 |
| 20260502185601 | 68 | 213 | 0.0 | 0.0 | 0.00 | 0.00 | 0.00 | 43 | 1020.8 |
| 20260502185102 | 68 | 217 | 0.0 | 0.0 | 0.00 | 0.00 | 0.00 | 43 | 1020.7 |
| 20260502184601 | 68 | 220 | 0.0 | 0.0 | 0.00 | 0.00 | 0.00 | 42 | 1020.8 |